Overview Statistics Trail Chart Weather Telemetry Raw packets
 

This is the latest recevied weather packets stored in our database for station/object EA7URS-13. If no packets are shown the sender has not sent any weather packets the latest 10 day(s).

<< 4 5 6 7 8 9 10 >>
Time Temp. Humidity Pressure Rain* Wind** Luminosity Snow
1788624772 35° C 37% 1010.2 hPa 0 mm - 133 W/m² -
1788624471 35° C 37% 1010.2 hPa 0 mm - 133 W/m² -
1788624170 34.44° C 37% 1010.2 hPa 0 mm - 142 W/m² -
1788623869 34.44° C 37% 1010.2 hPa 0 mm - 142 W/m² -
1788623568 33.89° C 38% 1010.4 hPa 0 mm - 159 W/m² -
1788623267 33.89° C 38% 1010.4 hPa 0 mm - 159 W/m² -
1788622966 34.44° C 39% 1010.4 hPa 0 mm - 128 W/m² -
1788622665 34.44° C 39% 1010.4 hPa 0 mm - 128 W/m² -
1788622364 34.44° C 39% 1010.9 hPa 0 mm - 105 W/m² -
1788622063 34.44° C 39% 1010.9 hPa 0 mm - 105 W/m² -
1788621760 33.89° C 39% 1010.9 hPa 0 mm - 100 W/m² -
1788621459 33.89° C 39% 1010.9 hPa 0 mm - 100 W/m² -
1788621157 33.89° C 38% 1010.9 hPa 0 mm - 97 W/m² -
1788620856 33.89° C 38% 1010.9 hPa 0 mm - 97 W/m² -
1788620555 34.44° C 38% 1011.1 hPa 0 mm - 128 W/m² -
1788620254 34.44° C 38% 1011.1 hPa 0 mm - 128 W/m² -
1788619953 34.44° C 37% 1011.2 hPa 0 mm - 135 W/m² -
1788619652 34.44° C 37% 1011.2 hPa 0 mm - 135 W/m² -
1788619351 34.44° C 36% 1011.2 hPa 0 mm - 154 W/m² -
1788619050 34.44° C 36% 1011.2 hPa 0 mm - 154 W/m² -
1788618749 35° C 36% 1011.4 hPa 0 mm - 196 W/m² -
1788618447 35° C 36% 1011.4 hPa 0 mm - 196 W/m² -
1788618146 34.44° C 35% 1011.2 hPa 0 mm - 224 W/m² -
1788617845 34.44° C 35% 1011.2 hPa 0 mm - 224 W/m² -
1788617544 35° C 35% 1011.2 hPa 0 mm - 245 W/m² -

* Rain latest hour (hover to see other rain measurements)
** Current wind speed in m/s (hover to see current wind gust speed)